Location: Aultman
(40.9284°N, 81.4173°W)
Time: 15:14:28
(UTC+00:00)

FengYun 1-2 T - Pass Details

Date: 24 January 2021
Orbit: 846 x 881 km, 98.7° (Epoch: 01 March)

Event Time Altitude Azimuth Distance (km) Brightness Sun altitude
Rises 23:08:15 0° 166° (SSE) 3,420 7.4 -6.9°
Reaches altitude 10° 23:10:36 10° 167° (SSE) 2,492 6.7 -7.3°
Maximum altitude 23:16:09 84° 256° (WSW) 877 4.4 -8.3°
Drops below altitude 10° 23:21:48 10° 345° (NNW) 2,531 6.7 -9.4°
Sets 23:24:12 0° 346° (NNW) 3,478 7.4 -9.8°
